Change the Weather History Date:

Tuesday, February 18, 2014

  Actual Average Record
Temperature  
Mean Temperature 24 °F -  
Max Temperature 33 °F 32 °F 46 °F (2008)
Min Temperature 15 °F 11 °F -11 °F (2011)
Degree Days  
Heating Degree Days 41    
Moisture  
Dew Point 11 °F    
Average Humidity 49    
Maximum Humidity 74    
Minimum Humidity 40    
Precipitation  
Precipitation 0.00 in - - ()
Sea Level Pressure  
Sea Level Pressure 29.70 in    
Wind  
Wind Speed 11 mph ()    
Max Wind Speed 33 mph    
Max Gust Speed 40 mph    
Visibility 15.0 miles    
Events      
Averages and records for this station are not official NWS values.
T = Trace of Precipitation, MM = Missing Value Source: Averaged Metar Reports

Daily Weather History Graph

Daily Weather History Graph

Search for Another Location

Airport or City:

Trip Planner

Search our weather history database for the weather conditions in past years. The results will help you decide how hot, cold, wet, or windy it might be!

Date:

Astronomy

Feb. 18, 2014 Rise Set
Actual Time 7:44 AM MST 5:59 PM MST
Civil Twilight 7:10 AM MST 6:33 PM MST
Nautical Twilight 6:31 AM MST 7:11 PM MST
Astronomical Twilight 5:53 AM MST 7:50 PM MST
Moon 10:28 PM MST (2/18) 8:50 AM MST (2/18)
Length of Visible Light 11h 22m
Length of Day
10h 14m
Waning Gibbous, 87% of the Moon is Illuminated
Feb 18
Waning Gibbous
Feb 22
Last Quarter
Mar 1
New
Mar 8
First Quarter
Mar 16
Full

Hourly Weather History & Observations

Time (MST) Temp. Windchill Dew Point Humidity Pressure Visibility Wind Dir Wind Speed Gust Speed Precip Events Conditions
5:00 AM 15.8 °F 6.1 °F 1.4 °F 53% 29.78 in 15.0 mi NW 6.9 mph - N/A   Scattered Clouds
6:00 AM 15.8 °F 2.7 °F 3.2 °F 58% 29.82 in 15.0 mi West 11.5 mph - N/A   Overcast
7:00 AM 19.4 °F 7.9 °F 5.0 °F 54% 29.82 in 15.0 mi West 10.4 mph - N/A   Mostly Cloudy
8:00 AM 17.6 °F 5.0 °F 3.2 °F 53% 29.83 in 30.0 mi WSW 11.5 mph - N/A   Scattered Clouds
9:00 AM 26.6 °F 19.1 °F 5.0 °F 40% 29.81 in 30.0 mi SSW 6.9 mph - N/A   Partly Cloudy
10:00 AM 28.4 °F 21.2 °F 6.8 °F 40% 29.79 in 30.0 mi WSW 6.9 mph - N/A   Partly Cloudy
10:46 AM 32.0 °F 17.9 °F 10.4 °F 41% 29.77 in 30.0 mi West 28.8 mph 38.0 mph N/A   Partly Cloudy
11:00 AM 32.0 °F 17.0 °F 10.4 °F 41% 29.77 in 30.0 mi West 33.4 mph 40.3 mph N/A   Partly Cloudy
11:30 AM 32.0 °F 21.6 °F 12.2 °F 44% 29.80 in 30.0 mi West 15.0 mph 23.0 mph N/A   Partly Cloudy
12:00 PM 33.8 °F 23.2 °F 12.2 °F 41% 29.76 in 30.0 mi West 17.3 mph - N/A   Scattered Clouds
1:00 PM 33.8 °F 21.6 °F 12.2 °F 41% 29.77 in 30.0 mi West 23.0 mph - N/A   Mostly Cloudy
2:00 PM 33.8 °F 24.8 °F 14.0 °F 44% 29.75 in 30.0 mi WSW 12.7 mph - N/A   Overcast
3:00 PM 33.8 °F 25.3 °F 12.2 °F 41% 29.71 in 30.0 mi West 11.5 mph - N/A   Overcast
4:00 PM 33.8 °F 29.6 °F 12.2 °F 41% 29.68 in 30.0 mi SSW 4.6 mph - N/A   Overcast
5:00 PM 32.0 °F 23.6 °F 12.2 °F 44% 29.65 in 30.0 mi SW 10.4 mph - N/A   Overcast
6:00 PM 30.2 °F 23.4 °F 12.2 °F 47% 29.60 in 30.0 mi South 6.9 mph - N/A   Overcast
7:00 PM 28.4 °F 17.5 °F 14.0 °F 55% 29.55 in 15.0 mi SSE 13.8 mph - N/A   Overcast
8:00 PM 28.4 °F 17.5 °F 15.8 °F 59% 29.51 in 15.0 mi SSE 13.8 mph - N/A   Overcast
9:00 PM 26.6 °F 15.7 °F 17.6 °F 69% 29.42 in 15.0 mi SE 12.7 mph - N/A   Overcast
10:00 PM 26.6 °F 16.8 °F 19.4 °F 74% 29.38 in 15.0 mi SSE 10.4 mph - N/A   Overcast